Flag for U.S.A. Weather past 2 weeks in Stockton, California, U.S.A.

Now
71 °F

Sunny.


Feels Like: 77 °F
Forecast: 50 / 85 °F
Wind: 9 mph from Northwest

Location: Stockton Metropolitan Airport

Current Time: Apr 19, 2015 at 11:33:16 AM

Latest Report: Apr 19, 2015 at 10:55 AM


Visibility: 10 mi

Pressure: 29.92 "Hg

Humidity: 45%

Dew point: 49 °F

Location of StocktonLocation

Historic Weather in Stockton — Graph

°F

Stockton temperature yesterday

Maximum temperature yesterday: 86 °F (at 4:55 PM)
Minimum temperature yesterday: 50 °F (at 5:55 AM)
Average temperature yesterday: 68 °F

Past Weeks' High & Low Weather Summary

 TemperatureHumidityPressure
High86 °F (Apr 18, 4:55 PM)93% (Apr 7, 7:55 AM)30.32 "Hg (Apr 7, 7:55 AM)
Low37 °F (Apr 6, 6:55 AM)11% (Apr 14, 6:55 PM)29.80 "Hg (Apr 7, 5:55 AM)
Average60 °F52%30.00 "Hg
* Reported Apr 4 9:55 AM — Apr 19 9:55 AM, Stockton, Weather by CustomWeather, © 2015

Note: Actual official high and low records may vary slightly from our data, if they occured in-between our weather recording intervals... More about our weather records

Advertising

Stockton weather history for previous 24 hours

 ConditionsComfort  
Time TempWeatherWind HumidityBarometerVisibility
9:55 AM
Sun, Apr 19
67 °FSunny.7 mph55%29.93 "Hg10 mi
8:55 AM63 °FSunny.6 mph65%29.93 "Hg10 mi
7:55 AM59 °FSunny.6 mph72%29.93 "Hg10 mi
6:55 AM54 °FClear.7 mph83%29.92 "Hg9 mi
5:55 AM54 °FClear.6 mph83%29.90 "Hg10 mi
4:55 AM54 °FClear.No wind74%29.90 "Hg10 mi
3:55 AM53 °FClear.No wind72%29.90 "Hg10 mi
2:55 AM55 °FClear.No wind77%29.89 "Hg10 mi
1:55 AM55 °FClear.No wind72%29.88 "Hg10 mi
12:55 AM59 °FClear.6 mph69%29.89 "Hg10 mi
11:55 PM
Sat, Apr 18
61 °FClear.5 mph70%29.88 "Hg10 mi
10:55 PM64 °FClear.7 mph65%29.88 "Hg10 mi
9:55 PM65 °FClear.7 mph63%29.89 "Hg10 mi
8:55 PM70 °FClear.10 mph47%29.89 "Hg10 mi
7:55 PM73 °FSunny.10 mph40%29.87 "Hg10 mi
6:55 PM80 °FSunny.9 mph34%29.86 "Hg10 mi
5:55 PM85 °FSunny.9 mph25%29.86 "Hg10 mi
4:55 PM86 °FSunny.5 mph18%29.87 "Hg10 mi
3:55 PM85 °FSunny.5 mph19%29.90 "Hg10 mi
2:55 PM83 °FSunny.7 mph23%29.92 "Hg10 mi
1:55 PM81 °FSunny.5 mph23%29.94 "Hg10 mi
12:55 PM79 °FSunny.5 mph24%29.97 "Hg10 mi
11:55 AM75 °FSunny.5 mph31%29.99 "Hg10 mi
Weather by CustomWeather, © 2015

See weather overviewHow to use our weather pages